Location: Cheyres
(46.8153°N, 6.7877°E)
Time: 08:41:59
(UTC+00:00)

Cosmos 2151 - Visible Passes

Search period start: 26 November 2022 00:00
Search period end: 06 December 2022 00:00
Orbit: 578 x 599 km, 82.5° (Epoch: 25 November)

Date Brightness Start Highest point End Pass type
(mag) Time Alt. Az. Time Alt. Az. Time Alt. Az.
26 Nov 5.6 04:57:55 10° SE 05:01:13 22° E 05:04:32 10° NE visible
26 Nov 2.9 16:35:32 10° N 16:39:43 69° E 16:43:53 10° SSE visible
26 Nov 6.3 18:14:55 10° WNW 18:16:20 11° W 18:17:45 10° WSW visible
27 Nov 4.9 05:05:06 10° SSE 05:08:51 32° E 05:12:37 10° NNE visible
27 Nov 3.0 16:43:16 10° N 16:47:28 81° W 16:51:39 10° S visible
28 Nov 4.1 05:12:28 10° SSE 05:16:31 46° E 05:20:34 10° NNE visible
28 Nov 3.8 16:51:06 10° NNW 16:55:12 55° W 16:59:16 10° S visible
29 Nov 3.3 05:20:02 10° S 05:24:13 69° E 05:28:26 10° NNE visible
29 Nov 4.6 16:59:00 10° NNW 17:02:52 37° W 17:06:43 10° SSW visible
30 Nov 2.8 05:27:44 10° S 05:31:58 82° W 05:36:12 10° N visible
30 Nov 5.3 17:07:01 10° NNW 17:10:30 26° W 17:13:59 10° SW visible
01 Dec 6.1 04:00:42 10° ESE 04:02:59 14° E 04:05:15 10° NE visible
01 Dec 3.0 05:35:35 10° SSW 05:39:44 55° WNW 05:43:53 10° N visible
01 Dec 5.9 17:15:13 10° NW 17:18:07 18° W 17:21:00 10° SW visible
02 Dec 5.5 04:07:27 10° SE 04:10:33 20° E 04:13:40 10° NE visible
02 Dec 3.4 05:43:36 10° SW 05:47:32 38° WNW 05:51:29 10° N visible
02 Dec 6.1 17:23:47 10° WNW 17:25:41 13° W 17:27:35 10° WSW visible
03 Dec 4.9 04:14:33 10° SSE 04:18:11 29° E 04:21:48 10° NNE visible
03 Dec 3.8 05:51:47 10° SW 05:55:22 27° WNW 05:58:59 10° NNW visible
04 Dec 4.2 04:21:52 10° SSE 04:25:49 41° E 04:29:47 10° NNE visible
04 Dec 4.2 06:00:11 10° WSW 06:03:15 19° WNW 06:06:20 10° NNW visible
05 Dec 3.4 04:29:22 10° S 04:33:30 61° E 04:37:39 10° NNE visible
05 Dec 4.6 06:08:55 10° W 06:11:10 14° WNW 06:13:25 10° NNW visible
